Location: Newark
(25.4617°S, 30.9297°E)
Time: 23:23:21
(UTC+00:00)

ISS - Visible Passes

Search period start: 14 October 2019 00:00
Search period end: 24 October 2019 00:00
Orbit: 411 x 421 km, 51.6° (Epoch: 14 October)

Date Brightness Start Highest point End Pass type
(mag) Time Alt. Az. Time Alt. Az. Time Alt. Az.
15 Oct -0.7 02:14:56 10° S 02:17:06 16° SE 02:19:16 10° E visible
16 Oct -1.6 16:28:14 10° NE 16:28:37 10° ENE 16:29:01 10° ENE visible
16 Oct -1.2 18:01:51 10° WNW 18:02:59 19° WNW 18:02:59 19° WNW visible
17 Oct -2.9 02:13:30 10° SSW 02:16:51 52° SE 02:20:10 10° NE visible
17 Oct -3.8 17:13:06 10° NW 17:16:27 87° SW 17:18:49 18° SE visible
18 Oct -1.5 01:26:57 20° S 01:28:15 26° SE 01:31:09 10° ENE visible
18 Oct -3.3 16:24:49 10° NNW 16:27:57 40° NE 16:31:08 10° ESE visible
18 Oct -0.5 18:03:16 10° WSW 18:04:48 12° SW 18:06:21 10° SSW visible
19 Oct -3.1 02:15:34 30° W 02:16:21 34° NW 02:19:27 10° NNE visible
19 Oct -1.2 17:13:25 10° W 17:16:07 22° SW 17:18:50 10° S visible
20 Oct -2.4 16:24:17 10° WNW 16:27:29 43° SW 16:30:43 10° SSE visible
22 Oct -0.6 16:25:28 10° WSW 16:27:15 14° SW 16:29:03 10° S visible
